| time (UTC) | temp F | wind direction | speed knots | gust knots | rain 1hr in | rain 24hr in | rain mn in | humidity % | barometer mb |
| 20260507024554 | 54 | 157 | 0.0 | 0.9 | 0.00 | 0.00 | 0.00 | 80 | 1009.6 |
| 20260507023045 | 54 | 0 | 0.0 | 1.7 | 0.00 | 0.00 | 0.00 | 79 | 1009.7 |
| 20260507021545 | 54 | 98 | 0.0 | 0.9 | 0.00 | 0.00 | 0.00 | 78 | 1009.6 |
| 20260507020105 | 54 | 211 | 0.9 | 2.6 | 0.00 | 0.00 | 0.00 | 77 | 1009.7 |
| 20260507014554 | 55 | 163 | 0.0 | 0.9 | 0.00 | 0.00 | 0.00 | 76 | 1009.7 |
| 20260507013048 | 55 | 0 | 0.0 | 1.7 | 0.00 | 0.00 | 0.00 | 75 | 1009.8 |
| 20260507011551 | 56 | 0 | 0.0 | 0.9 | 0.00 | 0.00 | 0.00 | 74 | 1009.9 |
| 20260507010044 | 56 | 250 | 0.0 | 0.9 | 0.00 | 0.00 | 0.00 | 74 | 1009.9 |
| 20260507004550 | 57 | 269 | 0.9 | 2.6 | 0.00 | 0.00 | 0.00 | 73 | 1010.0 |
| 20260507003047 | 57 | 181 | 0.0 | 2.6 | 0.00 | 0.00 | 0.00 | 72 | 1010.1 |
| 20260507001547 | 57 | 236 | 0.0 | 2.6 | 0.00 | 0.00 | 0.00 | 71 | 1010.2 |
| 20260507000045 | 58 | 245 | 0.9 | 2.6 | 0.00 | 0.00 | 0.00 | 71 | 1010.4 |
| 20260506234550 | 58 | 171 | 0.0 | 5.2 | 0.00 | 0.00 | 0.00 | 70 | 1010.3 |
| 20260506233043 | 58 | 200 | 0.9 | 4.3 | 0.00 | 0.00 | 0.00 | 69 | 1010.3 |
| 20260506231551 | 59 | 212 | 0.9 | 7.8 | 0.00 | 0.00 | 0.00 | 68 | 1010.2 |
| 20260506230056 | 59 | 221 | 0.9 | 4.3 | 0.00 | 0.00 | 0.00 | 67 | 1010.1 |
| 20260506224546 | 60 | 200 | 1.7 | 7.0 | 0.00 | 0.00 | 0.00 | 66 | 1010.1 |
| 20260506223051 | 60 | 262 | 1.7 | 9.6 | 0.00 | 0.00 | 0.00 | 65 | 1010.2 |
| 20260506221544 | 61 | 166 | 1.7 | 6.1 | 0.00 | 0.00 | 0.00 | 64 | 1010.1 |
| 20260506220055 | 61 | 127 | 0.9 | 5.2 | 0.00 | 0.00 | 0.00 | 63 | 1010.0 |
| 20260506214549 | 62 | 211 | 1.7 | 6.1 | 0.00 | 0.00 | 0.00 | 61 | 1009.9 |
| 20260506213103 | 62 | 290 | 0.9 | 6.1 | 0.00 | 0.00 | 0.00 | 59 | 1009.7 |
| 20260506211603 | 63 | 223 | 0.9 | 4.3 | 0.00 | 0.00 | 0.00 | 56 | 1009.7 |
| 20260506210045 | 64 | 233 | 0.9 | 6.1 | 0.00 | 0.00 | 0.00 | 52 | 1009.7 |
| 20260506204550 | 64 | 229 | 0.9 | 2.6 | 0.00 | 0.00 | 0.00 | 50 | 1009.4 |
| 20260506203047 | 65 | 255 | 0.0 | 1.7 | 0.00 | 0.00 | 0.00 | 49 | 1009.2 |
| 20260506201559 | 66 | 349 | 0.9 | 2.6 | 0.00 | 0.00 | 0.00 | 47 | 1009.2 |
| 20260506200052 | 67 | 240 | 0.0 | 0.9 | 0.00 | 0.00 | 0.00 | 46 | 1009.0 |
| 20260506194557 | 67 | 0 | 0.0 | 0.9 | 0.00 | 0.00 | 0.00 | 44 | 1009.1 |
| 20260506193054 | 68 | 0 | 0.0 | 0.9 | 0.00 | 0.00 | 0.00 | 42 | 1009.1 |
| 20260506191553 | 70 | 0 | 0.0 | 0.9 | 0.00 | 0.00 | 0.00 | 40 | 1009.1 |
| 20260506190044 | 71 | 0 | 0.0 | 1.7 | 0.00 | 0.00 | 0.00 | 39 | 1009.1 |
| 20260506184542 | 73 | 283 | 0.0 | 2.6 | 0.00 | 0.00 | 0.00 | 37 | 1009.1 |
| 20260506183058 | 73 | 230 | 0.9 | 3.5 | 0.00 | 0.00 | 0.00 | 36 | 1009.2 |
| 20260506181544 | 72 | 241 | 2.6 | 5.2 | 0.00 | 0.00 | 0.00 | 37 | 1009.4 |
| 20260506180049 | 73 | 240 | 2.6 | 5.2 | 0.00 | 0.00 | 0.00 | 36 | 1009.4 |
| 20260506174545 | 74 | 218 | 1.7 | 4.3 | 0.00 | 0.00 | 0.00 | 36 | 1009.6 |
| 20260506173050 | 73 | 217 | 3.5 | 7.0 | 0.00 | 0.00 | 0.00 | 35 | 1009.6 |
| 20260506171542 | 74 | 340 | 0.9 | 7.0 | 0.00 | 0.00 | 0.00 | 37 | 1009.7 |
| 20260506170108 | 74 | 225 | 2.6 | 5.2 | 0.00 | 0.00 | 0.00 | 36 | 1009.7 |
| 20260506164542 | 75 | 262 | 0.9 | 4.3 | 0.00 | 0.00 | 0.00 | 36 | 1009.7 |
| 20260506163054 | 75 | 247 | 0.9 | 7.8 | 0.00 | 0.00 | 0.00 | 36 | 1009.9 |
| 20260506161544 | 76 | 198 | 0.9 | 3.5 | 0.00 | 0.00 | 0.00 | 36 | 1009.8 |
| 20260506160043 | 76 | 203 | 0.0 | 6.1 | 0.00 | 0.00 | 0.00 | 37 | 1009.9 |
| 20260506154544 | 73 | 262 | 0.9 | 7.0 | 0.00 | 0.00 | 0.00 | 37 | 1009.9 |
| 20260506153046 | 75 | 223 | 0.9 | 7.0 | 0.00 | 0.00 | 0.00 | 39 | 1010.1 |
| 20260506151546 | 76 | 94 | 0.9 | 6.1 | 0.00 | 0.00 | 0.00 | 37 | 1010.4 |
| 20260506150044 | 75 | 180 | 0.9 | 4.3 | 0.00 | 0.00 | 0.00 | 41 | 1010.6 |
| 20260506144558 | 74 | 217 | 2.6 | 7.0 | 0.00 | 0.00 | 0.00 | 39 | 1010.9 |
| 20260506143041 | 74 | 255 | 1.7 | 5.2 | 0.00 | 0.00 | 0.00 | 38 | 1011.0 |
| 20260506141540 | 74 | 262 | 1.7 | 5.2 | 0.00 | 0.00 | 0.00 | 39 | 1011.3 |
| 20260506140048 | 74 | 0 | 0.9 | 4.3 | 0.00 | 0.00 | 0.00 | 41 | 1011.5 |
| 20260506134545 | 75 | 217 | 0.9 | 6.1 | 0.00 | 0.00 | 0.00 | 42 | 1011.8 |
| 20260506133045 | 73 | 225 | 0.9 | 6.1 | 0.00 | 0.00 | 0.00 | 40 | 1011.8 |
| 20260506131544 | 72 | 216 | 1.7 | 6.1 | 0.00 | 0.00 | 0.00 | 42 | 1012.0 |
| 20260506130046 | 73 | 236 | 0.9 | 1.7 | 0.00 | 0.00 | 0.00 | 41 | 1012.1 |
| 20260506124543 | 71 | 104 | 0.9 | 5.2 | 0.00 | 0.00 | 0.00 | 42 | 1012.3 |
| 20260506123048 | 75 | 88 | 0.9 | 5.2 | 0.00 | 0.00 | 0.00 | 40 | 1012.7 |
| 20260506121549 | 74 | 109 | 0.0 | 5.2 | 0.00 | 0.00 | 0.00 | 44 | 1012.8 |
| 20260506120045 | 71 | 101 | 0.9 | 5.2 | 0.00 | 0.00 | 0.00 | 44 | 1013.0 |
| 20260506114544 | 72 | 199 | 1.7 | 6.1 | 0.00 | 0.00 | 0.00 | 44 | 1013.1 |
| 20260506113042 | 71 | 90 | 1.7 | 3.5 | 0.00 | 0.00 | 0.00 | 44 | 1013.4 |
| 20260506111548 | 71 | 236 | 1.7 | 4.3 | 0.00 | 0.00 | 0.00 | 47 | 1013.4 |
| 20260506110048 | 72 | 103 | 0.0 | 1.7 | 0.00 | 0.00 | 0.00 | 49 | 1013.5 |
| 20260506104545 | 70 | 210 | 0.9 | 6.1 | 0.00 | 0.00 | 0.00 | 49 | 1013.6 |
| 20260506103051 | 70 | 333 | 0.9 | 2.6 | 0.00 | 0.00 | 0.00 | 49 | 1013.7 |
| 20260506101544 | 68 | 107 | 0.9 | 2.6 | 0.00 | 0.00 | 0.00 | 53 | 1013.7 |
| 20260506100041 | 69 | 94 | 0.9 | 2.6 | 0.00 | 0.00 | 0.00 | 51 | 1013.8 |
| 20260506094550 | 68 | 103 | 0.9 | 3.5 | 0.00 | 0.00 | 0.00 | 54 | 1013.7 |
| 20260506093049 | 66 | 186 | 0.0 | 3.5 | 0.00 | 0.00 | 0.00 | 57 | 1013.7 |
| 20260506091548 | 65 | 25 | 0.9 | 2.6 | 0.00 | 0.00 | 0.00 | 59 | 1013.7 |
| 20260506090049 | 66 | 91 | 0.9 | 5.2 | 0.00 | 0.00 | 0.00 | 58 | 1013.8 |
| 20260506084559 | 65 | 108 | 0.9 | 1.7 | 0.00 | 0.00 | 0.00 | 61 | 1013.8 |
| 20260506083043 | 64 | 264 | 0.0 | 1.7 | 0.00 | 0.00 | 0.00 | 62 | 1013.9 |
| 20260506081542 | 62 | 227 | 0.9 | 2.6 | 0.00 | 0.00 | 0.00 | 64 | 1014.0 |
| 20260506073053 | 60 | 0 | 0.0 | 0.9 | 0.00 | 0.00 | 0.00 | 69 | 1014.1 |
| 20260506071544 | 57 | 0 | 0.0 | 1.7 | 0.00 | 0.00 | 0.00 | 74 | 1014.1 |
| 20260506061554 | 49 | 214 | 0.0 | 1.7 | 0.00 | 0.00 | 0.00 | 86 | 1013.9 |
| 20260506050105 | 47 | 94 | 0.0 | 3.5 | 0.00 | 0.00 | 0.00 | 85 | 1013.6 |
| 20260506044551 | 47 | 228 | 0.0 | 1.7 | 0.00 | 0.00 | 0.00 | 85 | 1013.7 |
| 20260506043044 | 48 | 218 | 0.9 | 3.5 | 0.00 | 0.00 | 0.00 | 85 | 1013.6 |
| 20260506041544 | 47 | 0 | 0.9 | 2.6 | 0.00 | 0.00 | 0.00 | 87 | 1013.7 |
| 20260506034542 | 47 | 222 | 0.0 | 1.7 | 0.00 | 0.00 | 0.00 | 86 | 1013.8 |
| 20260506033048 | 48 | 0 | 0.0 | 0.9 | 0.00 | 0.00 | 0.00 | 86 | 1013.9 |
| 20260506031548 | 48 | 0 | 0.0 | 0.9 | 0.00 | 0.00 | 0.00 | 85 | 1013.9 |
| 20260506030045 | 49 | 184 | 0.9 | 1.7 | 0.00 | 0.00 | 0.00 | 83 | 1014.0 |